Weather Roundup
Issued by NWS Chicago, IL

Home | Current Version | Previous Version | Graphics & Text | Print | Product List | Glossary On
Versions: 1 2 3 4 5 6 7 8 9 10 11 12 13 14 15 16 17 18 19 20 21 22 23 24 25 26 27 28 29 30 31 32 33 34 35 36 37 38 39 40 41 42 43 44 45 46 47 48 49 50
000
NZUS59 KLOT 281408
HRRLOT

CHICAGO AREA WEATHER ROUNDUP
NATIONAL WEATHER SERVICE CHICAGO/ROMEOVILLE IL
900 AM CDT TUE APR 28 2015

NOTE: "FAIR" INDICATES FEW OR NO CLOUDS BELOW 12,000 FEET WITH NO
SIGNIFICANT WEATHER AND/OR OBSTRUCTIONS TO VISIBILITY.

* THESE STATIONS ARE NOT UNDER NWS QUALITY CONTROL. THEY ALSO MAY NOT
  REPORT WEATHER SUCH AS PRECIPITATION OR FOG.

ILZ005-006-012>014-019>023-281500-
NORTHEAST ILLINOIS

CITY           SKY/WX    TMP DP  RH WIND       PRES   REMARKS
OHARE          MOSUNNY   46  34  62 VRB3      30.17R
MIDWAY         SUNNY     50  37  61 CALM      30.17R
AURORA         SUNNY     49  35  58 N5        30.17S
LANSING*       SUNNY     47  35  63 CALM      30.17S
JOLIET*        SUNNY     49  36  60 CALM      30.17S
WAUKEGAN       SUNNY     47  37  68 N6        30.16S
DUPAGE AIRPORT SUNNY     48  36  63 NE3       30.16S
WHEELING       SUNNY     48  35  60 VRB3      30.18F
KANKAKEE*      SUNNY     49  39  68 CALM      30.17S
MORRIS*        SUNNY     47  36  63 CALM      30.15S
LEWIS AIRPORT* SUNNY     48  35  60 CALM      30.17S
NORTHERLY IS     N/A     47  38  71 N7          N/A
$$

WIZ051-052-058>065-066-070>072-281500-
SOUTHEAST WISCONSIN

CITY           SKY/WX    TMP DP  RH WIND       PRES   REMARKS
MILWAUKEE      MOSUNNY   48  35  60 NE8       30.17F
KENOSHA*       SUNNY     48  37  65 N6        30.16F
RACINE*        SUNNY     47  35  63 N10       30.17F
BURLINGTON     SUNNY     46  34  62 N7        30.16F
WAUKESHA       SUNNY     45  34  65 NE8       30.18S
WEST BEND      SUNNY     46  32  57 N10       30.17S
$$

INZ001>003-010>013-019-020-281500-
NORTHWEST INDIANA

CITY           SKY/WX    TMP DP  RH WIND       PRES   REMARKS
GARY*          SUNNY     50  34  53 CALM        N/A
MICHIGAN CITY* NOT AVBL
RENSSELAER*    NOT AVBL
VALPARAISO     SUNNY     49  37  63 W6        30.16F
$$

LMZ740>746-281500-
SOUTHERN LAKE MICHIGAN

STATION/POSITION TIME  SKY/WX   TEMP WIND        PRES    VSBY
                                AIR  DIR/SP/G
                 (UTC)          (F)  (DEG/KT/KT) (MB)    (MI)
HARRISON CRIB    1300            43  320/  7/  8   N/A
BURNHAM HARBOR   1400            47   30/  5/  7   N/A
CALUMET HARBOR   1300            44   20/  5/  6   N/A
BURNS HARBOR     1300            43  310/  5/  7 1022.4R
MICHIGAN CITY    1300            42  190/  3/  4   N/A
$$

ABBREVIATIONS USED IN REMARKS
   TC - TEMPERATURE IN CELSIUS
  WCI - WIND CHILL INDEX
   HX - HEAT INDEX
  VSB - VISIBILITY
$$


USA.gov is the U.S. government's official web portal to all federal, state and local government web resources and services.